This is the latest recevied weather packets stored in our database for station/object KD9CCP. If no packets are shown the sender has not sent any weather packets the latest 10 day(s).
| Time | Temp. | Humidity | Pressure | Rain* | Wind** | Luminosity | Snow |
|---|---|---|---|---|---|---|---|
| 1777986270 | 2.78° C | 71% | 1006.8 hPa | 0 mm | - | 32 W/m² | - |
| 1777985967 | 2.78° C | 72% | 1006.7 hPa | 0 mm | - | 22 W/m² | - |
| 1777985664 | 2.78° C | 69% | 1006.8 hPa | 0 mm | - | 23 W/m² | - |
| 1777985361 | 2.78° C | 70% | 1006.8 hPa | 0 mm | - | 16 W/m² | - |
| 1777985058 | 2.78° C | 70% | 1006.7 hPa | 0 mm | - | 24 W/m² | - |
| 1777984754 | 2.78° C | 71% | 1006.8 hPa | 0 mm | - | 17 W/m² | - |
| 1777984451 | 2.78° C | 69% | 1006.7 hPa | 0 mm | - | 13 W/m² | - |
| 1777984146 | 3.33° C | 71% | 1006.8 hPa | 0 mm | - | 10 W/m² | - |
| 1777983844 | 3.33° C | 71% | 1006.6 hPa | 0 mm | - | 22 W/m² | - |
| 1777983540 | 3.33° C | 72% | 1006.7 hPa | 0 mm | - | 27 W/m² | - |
| 1777983238 | 3.33° C | 76% | 1006.4 hPa | 0 mm | - | 26 W/m² | - |
| 1777982933 | 2.78° C | 74% | 1006.6 hPa | 0 mm | - | 18 W/m² | - |
| 1777982630 | 2.78° C | 72% | 1006.4 hPa | 0 mm | - | 14 W/m² | - |
| 1777982328 | 2.78° C | 71% | 1006.1 hPa | 0 mm | - | 13 W/m² | - |
| 1777982026 | 2.78° C | 74% | 1006 hPa | 0 mm | - | 12 W/m² | - |
| 1777981724 | 2.22° C | 72% | 1006.1 hPa | 0 mm | - | 12 W/m² | - |
| 1777981420 | 2.78° C | 72% | 1006.1 hPa | 0 mm | - | 8 W/m² | - |
| 1777981116 | 2.78° C | 73% | 1005.9 hPa | 0 mm | - | 8 W/m² | - |
| 1777980813 | 2.78° C | 73% | 1005.9 hPa | 0 mm | - | 8 W/m² | - |
| 1777980509 | 2.78° C | 75% | 1005.7 hPa | 0 mm | - | 8 W/m² | - |
| 1777980206 | 2.78° C | 72% | 1005.7 hPa | 0 mm | - | 6 W/m² | - |
| 1777979902 | 2.78° C | 72% | 1005.7 hPa | 0 mm | - | 6 W/m² | - |
| 1777979597 | 2.78° C | 72% | 1005.5 hPa | 0 mm | - | 3 W/m² | - |
| 1777979294 | 2.78° C | 72% | 1005.7 hPa | 0 mm | - | 3 W/m² | - |
| 1777978991 | 2.78° C | 72% | 1005.4 hPa | 0 mm | - | 2 W/m² | - |
* Rain latest hour (hover to see other rain measurements)
** Current wind speed in m/s (hover to see current wind gust speed)